Location: ??????????
(48.3987°N, 37.8479°E)
Time: 11:03:13
(UTC+00:00)

Daily predictions for brighter satellites

Satellite Brightness Start Highest point End
(mag) Time Altitude Azimuth Time Altitude Azimuth Time Altitude Azimuth
NOSS 3-1 (A) 4.1 13:58:44 10° NW 14:06:01 68° NE 14:14:36 10° SE
NOSS 3-1 (C) 4.2 13:59:28 10° NW 14:06:52 87° SW 14:15:36 10° SE
USA 234 3.3 14:00:39 10° ESE 14:07:11 76° NNE 14:13:43 10° NW
Cosmos 1408 Rocket 3.5 14:05:18 10° N 14:09:39 65° E 14:14:00 10° SSE
COSMOS 2455 4.2 14:08:40 10° SSE 14:12:48 20° ESE 14:16:57 10° ENE
Envisat 4.5 14:08:17 10° SSW 14:13:04 42° W 14:17:55 10° NNW
COSMOS 2406 4.3 14:08:41 10° SSE 14:13:20 26° ESE 14:18:00 10° NE
NOAA 11 4.3 14:08:52 10° SSE 14:14:18 84° WSW 14:19:47 10° NNW
SJ-7 4.5 14:11:15 10° SSE 14:15:27 87° ENE 14:19:43 10° NNW
NOAA 12 4.1 14:10:35 10° SSE 14:15:52 69° ENE 14:21:11 10° N
Okean O Rocket 3.2 14:13:59 10° E 14:16:31 15° ENE 14:19:02 10° NNE
Cosmos 1743 Rocket 3.9 14:13:04 10° N 14:17:12 43° ENE 14:21:20 10° SSE
Iridium 2 4.1 14:14:05 10° N 14:17:50 68° W 14:21:32 10° S
Meteor PRIRODA 3.5 14:14:33 10° SSE 14:18:10 74° ENE 14:21:48 10° N
ATLAS CENTAUR R/B 3.0 14:15:07 10° W 14:18:49 28° NW 14:22:45 10° NNE
Cosmos 1833 Rocket 3.3 14:15:22 10° S 14:20:27 37° ESE 14:25:34 10° NE
ARGOS 4.3 14:18:14 10° ESE 14:22:14 21° ENE 14:26:13 10° N
USA 276 2.9 14:20:03 10° WNW 14:23:05 52° SSW 14:26:07 10° SE
Cosmos 1782 4.2 14:22:05 10° SE 14:25:00 20° E 14:27:54 10° NE
Cosmos 1464 Rocket 4.1 14:18:58 10° S 14:25:21 87° E 14:31:47 10° N
Spot 1 4.3 14:21:58 10° NNE 14:26:39 78° ESE 14:31:34 10° S
USA 308 3.6 14:22:55 10° W 14:27:00 43° NNW 14:30:47 12° ENE
Nadezhda 4 Rocket 4.0 14:26:52 10° N 14:33:14 85° E 14:39:34 10° S
SJ 16-02 3.6 14:29:47 10° NW 14:33:36 30° W 14:37:24 10° SSW
Cosmos 1340 Rocket 2.8 14:30:29 10° N 14:34:35 83° ENE 14:38:40 10° SSE
CZ-4C R/B 4.3 14:31:05 10° N 14:34:51 46° WNW 14:38:25 10° SW
CZ-4B R/B 3.8 14:33:28 10° SE 14:38:15 33° ENE 14:42:59 10° N
CZ-4C R/B 3.2 14:32:14 10° NW 14:38:45 45° NE 14:46:28 10° ESE
Cosmos 2360 4.2 14:33:03 10° NNW 14:38:47 64° ENE 14:44:27 10° SE
Meteor 1-20 Rocket 4.3 14:34:10 10° N 14:40:01 71° ENE 14:45:51 10° SSE
CZ-2C R/B 3.6 14:37:14 10° NE 14:41:22 24° E 14:45:29 10° SE
ISS -3.6 14:38:11 10° WNW 14:41:33 58° NNE 14:44:11 15° E
CZ-2D R/B 3.7 14:38:10 10° SE 14:41:44 38° ENE 14:45:18 10° N
Cosmos 1606 3.7 14:38:15 10° SSW 14:41:54 47° WNW 14:45:35 10° N
Lacrosse 5 rocket 2.4 14:39:43 10° NW 14:43:02 26° NNE 14:45:18 16° ENE
Cosmos 540 Rocket 4.0 14:39:27 10° S 14:44:10 39° ESE 14:48:44 11° NE
GEOS 3 Rocket 4.5 14:39:52 11° E 14:44:16 31° NNE 14:48:46 10° NNW
Cosmos 1500 Rocket 3.6 14:41:43 10° N 14:46:12 89° ENE 14:50:36 10° S
Cosmos 1092 Rocket 4.0 14:41:33 10° N 14:47:55 68° ENE 14:54:13 10° SSE
MOS 1-B 4.4 14:43:05 10° SE 14:48:40 53° ENE 14:54:17 10° N
CZ-2C R/B 3.7 14:45:14 10° S 14:50:03 55° W 14:54:46 10° NNW
SMAP 3.1 14:45:45 10° SSE 14:50:25 90° SSW 14:55:07 10° NNW
CZ-4B R/B 3.9 14:47:10 10° S 14:51:08 50° W 14:54:55 10° NNW
Cosmos 44 Rocket 4.4 14:47:49 10° NNW 14:51:58 25° NNE 14:54:16 18° ENE
Cosmos 1428 Rocket 4.4 14:46:41 10° N 14:52:47 64° ENE 14:58:52 10° SSE
Cosmos 468 Rocket 3.9 14:48:21 10° SSW 14:53:29 76° ESE 14:58:43 10° NNE
Cosmos 1500 3.5 14:50:32 10° N 14:54:06 40° ENE 14:57:38 10° SSE
Cosmos 1898 Rocket 3.5 14:48:54 10° NNW 14:54:12 89° WSW 14:59:25 10° SSE
USA 305 3.7 14:50:26 10° WNW 14:54:24 39° N 14:56:56 19° NE
Cosmos 1805 Rocket 3.4 14:53:25 10° N 14:57:46 71° E 15:02:05 10° SSE
Cosmos 2360 Rocket 3.9 14:55:17 10° N 14:57:59 13° NNE 14:58:40 13° NE
Sich 1 3.0 14:54:22 10° N 14:58:36 57° ENE 15:02:50 10° SSE
Cosmos 1933 3.2 14:56:59 10° S 15:01:00 72° E 15:05:03 10° NNE
Cosmos 2221 3.9 14:58:53 10° SW 15:02:54 39° WNW 15:06:58 10° N
PSLV R/B 3.5 15:03:01 10° SSE 15:06:41 84° ENE 15:10:26 10° NNW
Cosmos 1627 Rocket 4.4 15:02:21 10° N 15:08:35 81° E 15:14:42 10° SSE
NOSS 2-2 (C) 4.2 15:05:21 10° NW 15:10:20 73° NE 15:17:24 10° SE
Cosmos 2034 Rocket 4.5 15:05:32 10° SSW 15:11:37 63° WNW 15:17:45 10° N
Meteor 1-14 Rocket 4.4 15:08:28 10° N 15:14:10 54° ENE 15:19:57 10° SSE
H-2A R/B 1.9 15:09:05 10° SSE 15:14:16 78° ENE 15:19:20 10° NNW
deb Chang Zheng 4 3.6 15:10:51 10° SSE 15:15:02 54° ENE 15:19:16 10° N
USA 267 3.4 15:10:52 19° NE 15:15:49 72° NNW 15:22:20 10° WSW
MOS 1-B Rocket 4.0 15:11:28 10° NNE 15:17:15 62° ESE 15:23:47 10° S
Cosmos 2322 Rocket 3.4 15:13:25 10° N 15:17:50 22° NE 15:18:14 22° NE
Cosmos 2279 Rocket 4.1 15:11:55 10° SSE 15:17:50 49° E 15:23:46 10° NNE
Cosmos 1697 Rocket 3.2 15:15:44 10° NNW 15:21:17 62° WSW 15:26:48 10° SSE
Cosmos 1666 2.7 15:20:10 10° N 15:23:49 48° ENE 15:27:25 10° SSE
Cosmos 2369 3.7 15:18:44 10° NNW 15:24:30 85° WSW 15:30:14 10° SSE
SJ-11-01 4.3 15:19:52 10° SSE 15:24:32 59° ENE 15:29:12 10° N
ATLAS 5 CENTAUR R/B 2.6 15:16:55 10° NW 15:24:52 43° NNE 15:25:50 35° ENE
Cosmos 1980 Rocket 2.1 15:19:29 10° NNW 15:25:12 80° ENE 15:30:51 10° SSE
USA 306 3.7 15:22:38 10° WNW 15:26:38 38° N 15:27:44 32° NE
ERBS 4.0 15:24:12 10° WNW 15:26:43 20° NNW 15:27:11 20° N
Meteor 1-5 Rocket 4.3 15:20:57 10° N 15:26:54 62° ENE 15:32:46 10° SSE
Meteor 2-21 4.5 15:22:08 10° N 15:28:16 83° W 15:34:18 10° S
Cosmos 1763 Rocket 4.1 15:23:35 10° SW 15:28:33 55° WNW 15:33:29 11° NNE
COSMO-SKYMED 1 2.6 15:27:55 25° NNE 15:30:16 57° E 15:34:32 10° S
SL-24 R/B - RUBIN 2 3.5 15:26:36 10° NW 15:31:11 87° SW 15:34:49 14° SE
Cosmos 1634 Rocket 4.0 15:26:56 10° S 15:33:17 87° W 15:39:40 10° N
Cosmos 841 Rocket 3.3 15:28:42 10° SSW 15:33:51 79° ESE 15:37:08 23° NNE
SL-16 R/B 2.8 15:29:57 10° NNW 15:35:05 33° NE 15:35:31 33° ENE
Cosmos 1937 Rocket 4.2 15:30:34 10° NNW 15:35:47 56° WSW 15:40:58 10° S
ATLAS CENTAUR R/B 2.7 15:26:47 10° SW 15:35:54 81° NW 15:37:40 38° NE
Cosmos 1125 Rocket 4.1 15:32:18 10° N 15:36:47 34° NE 15:36:47 34° NE
Helios 1B 4.4 15:37:05 30° NNE 15:39:08 69° ESE 15:43:27 10° S
Cosmos 2026 Rocket 4.4 15:33:33 10° NNW 15:39:38 64° W 15:45:37 10° S
Cosmos 2082 Rocket 2.1 15:34:01 10° SSW 15:39:40 70° ESE 15:42:35 29° NE
Cosmos 1812 2.5 15:36:38 10° S 15:40:28 76° E 15:41:26 48° NNE
Cosmos 1633 Rocket 2.9 15:37:23 10° N 15:41:47 73° E 15:46:09 10° SSE
ATLAS 2AS CENTAUR R/B 4.2 15:36:49 10° NW 15:42:53 25° N 15:46:02 19° NNE
YAOGAN 1 3.9 15:45:11 25° NNE 15:45:11 25° NNE 15:47:15 10° N
Cosmos 2333 Rocket 4.1 15:39:55 10° N 15:42:09 15° NNE 15:42:09 15° NNE
USA 307 3.6 15:40:56 10° WNW 15:44:58 39° N 15:45:19 38° NNE
Cosmos 2278 3.6 15:43:17 10° NNW 15:49:01 87° ENE 15:54:44 10° SSE
Cosmos 372 Rocket 4.4 15:45:11 10° NNW 15:50:22 65° WSW 15:55:33 10° S
USA 234 4.4 15:44:23 10° SSE 15:50:31 42° SW 15:56:39 10° WNW
Cosmos 1655 Rocket 4.0 15:45:31 10° N 15:51:51 58° ENE 15:58:07 10° SSE
Okean O Rocket 1.7 15:47:49 10° S 15:52:16 78° WSW 15:56:46 10° NNW
COSMOS 2406 3.7 15:51:35 10° SW 15:57:15 59° WNW 16:01:00 22° NNE
COSMOS 2455 2.8 15:51:58 10° SW 15:57:59 84° NW 16:00:45 35° NNE
Meteor 2-15 4.4 15:52:18 10° S 15:58:17 60° E 16:01:34 28° NNE
ATLAS CENTAUR R/B 4.0 15:57:26 10° NW 15:59:11 12° NNW 16:00:08 11° N
Cosmos 1151 Rocket 3.1 15:55:16 10° SSW 15:59:34 77° W 16:01:14 37° N
Cosmos 1782 4.2 15:57:16 10° SW 16:01:01 38° WNW 16:04:07 14° N
ARGOS 3.4 15:56:35 10° S 16:01:59 70° WSW 16:07:24 10° NNW
Cosmos 2180 Rocket 4.4 15:57:40 10° S 16:04:02 81° E 16:10:21 10° N
Cosmos 1833 Rocket 3.7 15:58:59 10° SW 16:04:19 42° NW 16:08:05 18° N
Cosmos 1666 Rocket 4.3 16:02:11 10° NNW 16:06:32 52° W 16:10:49 10° S
USA 308 3.8 16:03:27 10° WNW 16:06:49 38° NNW 16:06:49 38° NNW
Meteor 2-6 Rocket 4.1 16:02:35 10° S 16:08:21 84° E 16:11:08 32° NNE
Cosmos 2219 Rocket 4.2 16:09:15 10° N 16:10:38 14° N 16:10:38 14° N
Cosmos 1328 Rocket 3.6 16:09:16 10° SSW 16:13:42 77° W 16:13:45 77° WNW
Meteor 2-8 Rocket 4.4 16:11:44 10° S 16:17:53 84° W 16:23:55 11° N
SKYMED 2 4.4 16:16:31 30° NNW 16:18:18 48° WNW 16:22:28 10° SW
ISS -1.8 16:15:06 10° WNW 16:17:11 30° W 16:17:11 30° W
CZ-4B R/B 4.4 16:13:36 10° S 16:18:42 42° W 16:23:47 10° NNW
CZ-4 R/B 4.1 16:23:50 11° NNW 16:23:50 11° NNW 16:23:56 10° NNW
Cosmos 2298 Rocket 3.9 16:14:55 10° NNW 16:19:52 74° NNE 16:19:52 74° NNE
Cosmos 1570 Rocket 4.0 16:15:43 10° SSW 16:20:57 79° WNW 16:21:37 67° N
GEOS 3 Rocket 3.6 16:21:01 60° SSE 16:21:58 78° SW 16:27:12 10° NW
CZ-2C R/B 3.2 16:17:52 15° N 16:22:00 53° WNW 16:27:00 10° SW
Lacrosse 5 rocket 2.7 16:18:39 10° NW 16:20:54 33° NW 16:20:54 33° NW
Landsat 5 4.1 16:23:53 52° WSW 16:23:53 52° WSW 16:27:18 10° SSW
SL-08 RB Rocket 4.4 16:20:41 10° S 16:25:14 55° W 16:29:47 10° NNW
Meteor 1-11 Rocket 3.6 16:20:06 10° N 16:25:14 73° NNE 16:25:14 73° NNE
Meteor 1-10 Rocket 4.1 16:20:21 10° S 16:26:09 85° E 16:26:29 80° NE
CZ-4C R/B 3.3 16:20:38 10° NW 16:27:49 67° SW 16:34:47 16° SSE
Cosmos 1818 3.5 16:22:47 10° NW 16:28:17 82° SW 16:28:21 82° SW
Cosmos 1814 Rocket 4.4 16:23:47 10° SW 16:28:57 61° WNW 16:29:53 52° NNW
Cosmos 44 Rocket 3.8 16:29:05 10° NW 16:33:01 55° WNW 16:33:01 55° WNW
Cosmos 2360 Rocket 3.7 16:37:59 10° NNW 16:40:26 25° N 16:40:26 25° N
USA 267 3.9 16:58:13 44° N 16:58:22 44° N 17:04:29 10° WNW
Cosmos 2322 Rocket 3.4 16:56:53 10° NNW 17:00:05 35° NNW 17:00:05 35° NNW
SL-16 R/B 3.6 17:13:57 10° NW 17:17:26 35° WNW 17:17:26 35° WNW
Cosmos 2082 Rocket 4.0 17:19:35 10° W 17:24:17 26° NW 17:24:28 26° NW
ATLAS 2AS CENTAUR R/B 4.3 17:29:29 10° NW 17:33:28 26° NNW 17:33:28 26° NNW
